User: anonymous   Login
Location: Unspecified
(0.0000°N, 0.0000°E)
Time: 19:06:34
(UTC+00:00)
Language:

STARLINK-35495 - Orbit

View from above orbital plane
View from above orbital plane
View from above satellite
View from above satellite

Ground track
Ground track

The orbit is defined by the following mean orbital elements,

1 66243U          26145.38932056 +.00000000 +00000-0 +75580-3 0 00006
2 66243  53.1594 287.3453 0001788  75.5805 284.5394 15.30212684    03
Epoch (UTC): 25 May 2026 09:20:37
Eccentricity: 0.0001788
inclination: 53.1594°
perigee height: 474 km
apogee height: 476 km
right ascension of ascending node: 287.3453°
argument of perigee: 75.5805°
revolutions per day: 15.30212684
mean anomaly at epoch: 284.5394°

The dashed part of the orbit path shows where the satellite is in the earth's shadow,  

DLR